Gainesville, GA

3:20 AM EST on November 15, 2019 (GMT -0500)
Gilmer Memorial

Weather History for KGVL - October, 2019

Change the Weather History Date:

Monday, October 21, 2019

  Actual Average Record
Temperature  
Mean Temperature 63 °F 60 °F  
Max Temperature 70 °F 70 °F 87 °F (1941)
Min Temperature 56 °F 50 °F 27 °F (1952)
Degree Days  
Heating Degree Days 2 6  
Month to date heating degree days 43 75  
Since 1 July heating degree days 43 88  
Cooling Degree Days 0 1  
Month to date cooling degree days 104 34  
Year to date cooling degree days 2033 1575  
Growing Degree Days 12 (Base 50)    
Moisture  
Dew Point 60 °F    
Average Humidity 89    
Maximum Humidity 100    
Minimum Humidity 78    
Precipitation  
Precipitation 0.00 in 0.11 in 1.13 in (1942)
Month to date precipitation 1.87 2.98  
Year to date precipitation 39.75 43.91  
Snow  
Snow 0.00 in - - ()
Month to date snowfall 0.0  
Since 1 July snowfall 0.0  
Since 1 September snowfall 0.0  
Snow Depth 0.00 in    
Sea Level Pressure  
Sea Level Pressure 30.00 in    
Wind  
Wind Speed 6 mph (East)    
Max Wind Speed 13 mph    
Max Gust Speed 17 mph    
Visibility 6 miles    
Events Fog    
T = Trace of Precipitation, MM = Missing Value Source: NWS Daily Summary

Daily Weather History Graph

Daily Weather History Graph

Search for Another Location

Airport or City:

Astronomy

Oct. 21, 2019 Rise Set
Actual Time 7:45 AM EDT 6:54 PM EDT
Civil Twilight 7:19 AM EDT 7:19 PM EDT
Nautical Twilight 6:50 AM EDT 7:48 PM EDT
Astronomical Twilight 6:21 AM EDT 8:17 PM EDT
Moon 12:13 AM EDT (10/21) 2:53 PM EDT (10/21)
Length of Visible Light 11h 59m
Length of Day
11h 08m
Waning Gibbous, 48% of the Moon is Illuminated
Oct 21
Waning Gibbous
Oct 27
New
Nov 4
First Quarter
Nov 12
Full
Nov 19
Last Quarter

Hourly Weather History & Observations

Time (EDT) Temp. Dew Point Humidity Pressure Visibility Wind Dir Wind Speed Gust Speed Precip Events Conditions
12:53 AM 61.0 °F 59.0 °F 93% 29.96 in 10.0 mi WNW 5.8 mph - N/A   Clear
1:53 AM 60.1 °F 59.0 °F 96% 29.96 in 10.0 mi NW 3.5 mph - N/A   Clear
3:53 AM 57.9 °F 57.9 °F 100% 29.96 in 7.0 mi Calm Calm - N/A   Clear
4:18 AM 57.0 °F 57.0 °F 100% 29.98 in 1.2 mi Calm Calm - N/A   Clear
4:20 AM 57.0 °F 57.0 °F 100% 29.98 in 0.8 mi Calm Calm - N/A   Clear
4:28 AM 57.0 °F 57.0 °F 100% 29.98 in 1.2 mi Calm Calm - N/A   Clear
4:31 AM 57.0 °F 57.0 °F 100% 29.98 in 3.0 mi WSW 3.5 mph - N/A   Clear
4:53 AM 55.9 °F 55.9 °F 100% 29.95 in 2.0 mi Calm Calm - N/A   Partly Cloudy
4:55 AM 57.0 °F 57.0 °F 100% 29.98 in 1.0 mi Calm Calm - N/A   Mist
5:02 AM 55.9 °F 55.9 °F 100% 29.98 in 0.2 mi Calm Calm - N/A Fog Fog
5:10 AM 57.0 °F 57.0 °F 100% 29.98 in 1.5 mi Calm Calm - N/A   Partly Cloudy
5:12 AM 57.0 °F 57.0 °F 100% 29.98 in 3.0 mi Calm Calm - N/A   Scattered Clouds
5:20 AM 55.9 °F 55.9 °F 100% 29.98 in 2.5 mi Calm Calm - N/A   Mostly Cloudy
5:27 AM 57.0 °F 57.0 °F 100% 29.98 in 1.2 mi Calm Calm - N/A   Mostly Cloudy
5:31 AM 55.9 °F 55.9 °F 100% 29.99 in 2.0 mi Calm Calm - N/A   Mostly Cloudy
5:38 AM 55.9 °F 55.9 °F 100% 30.00 in 6.0 mi Calm Calm - N/A   Overcast
5:53 AM 57.0 °F 57.0 °F 100% 29.97 in 10.0 mi Calm Calm - N/A   Overcast
6:04 AM 57.9 °F 57.9 °F 100% 30.00 in 10.0 mi NNE 4.6 mph - N/A   Overcast
6:14 AM 57.9 °F 57.9 °F 100% 30.00 in 7.0 mi NE 3.5 mph - N/A   Overcast
6:19 AM 59.0 °F 59.0 °F 100% 30.00 in 1.8 mi NE 3.5 mph - N/A   Overcast
6:21 AM 59.0 °F 59.0 °F 100% 29.99 in 1.0 mi ENE 3.5 mph - N/A   Overcast
6:53 AM 59.0 °F 59.0 °F 100% 29.98 in 0.2 mi NNE 3.5 mph - N/A Fog Fog
7:53 AM 60.1 °F 60.1 °F 100% 30.00 in 0.2 mi ENE 3.5 mph - N/A Fog Fog
8:53 AM 60.1 °F 60.1 °F 100% 30.01 in 0.2 mi East 6.9 mph - N/A Fog Fog
9:53 AM 60.1 °F 60.1 °F 100% 30.02 in 0.8 mi East 8.1 mph - N/A   Overcast
10:06 AM 61.0 °F 61.0 °F 100% 30.05 in 1.2 mi East 6.9 mph - N/A   Overcast
10:13 AM 61.0 °F 61.0 °F 100% 30.05 in 2.0 mi East 9.2 mph - N/A   Overcast
10:18 AM 61.0 °F 61.0 °F 100% 30.05 in 3.0 mi ENE 8.1 mph - N/A   Overcast
11:25 AM 63.0 °F 62.1 °F 97% 30.07 in 10.0 mi East 8.1 mph - N/A   Overcast
11:53 AM 66.0 °F 63.0 °F 90% 30.03 in 10.0 mi ENE 8.1 mph - N/A   Overcast
12:08 PM 64.9 °F 62.1 °F 90% 30.05 in 10.0 mi East 9.2 mph - N/A   Overcast
12:41 PM 64.9 °F 62.1 °F 90% 30.04 in 10.0 mi East 11.5 mph - N/A   Overcast
12:53 PM 66.9 °F 63.0 °F 87% 30.02 in 10.0 mi East 9.2 mph - N/A   Overcast
1:02 PM 66.0 °F 62.1 °F 87% 30.04 in 10.0 mi ESE 8.1 mph - N/A   Mostly Cloudy
1:53 PM 68.0 °F 62.1 °F 81% 30.00 in 10.0 mi ESE 6.9 mph - N/A   Overcast
2:53 PM 69.1 °F 63.0 °F 81% 29.98 in 10.0 mi East 8.1 mph - N/A   Mostly Cloudy
3:04 PM 70.0 °F 63.0 °F 78% 30.01 in 10.0 mi East 6.9 mph - N/A   Scattered Clouds
3:30 PM 70.0 °F 63.0 °F 78% 30.01 in 10.0 mi East 6.9 mph - N/A   Mostly Cloudy
3:53 PM 70.0 °F 64.0 °F 81% 29.99 in 10.0 mi East 5.8 mph - N/A   Overcast
4:53 PM 69.1 °F 64.0 °F 84% 29.98 in 10.0 mi East 6.9 mph - N/A   Mostly Cloudy
5:53 PM 68.0 °F 64.0 °F 87% 29.99 in 10.0 mi ENE 8.1 mph - N/A   Overcast
6:53 PM 66.0 °F 63.0 °F 90% 29.97 in 10.0 mi East 8.1 mph - N/A   Clear
7:53 PM 64.9 °F 64.0 °F 97% 29.98 in 10.0 mi East 6.9 mph - N/A   Mostly Cloudy
8:53 PM 64.9 °F 64.0 °F 97% 29.99 in 10.0 mi East 9.2 mph - N/A   Mostly Cloudy
9:39 PM 64.0 °F 64.0 °F 100% 30.02 in 9.0 mi East 6.9 mph - N/A   Overcast
9:53 PM 64.0 °F 64.0 °F 100% 29.99 in 9.0 mi East 8.1 mph - N/A   Overcast
10:31 PM 64.0 °F 64.0 °F 100% 30.01 in 7.0 mi East 8.1 mph - N/A   Mostly Cloudy
10:53 PM 64.0 °F 64.0 °F 100% 29.96 in 7.0 mi East 10.4 mph - N/A   Overcast
11:13 PM 64.0 °F 64.0 °F 100% 29.98 in 7.0 mi ESE 8.1 mph - N/A   Mostly Cloudy
11:53 PM 64.0 °F 64.0 °F 100% 29.94 in 7.0 mi East 8.1 mph - N/A   Partly Cloudy